GEFSSGP_850_meantemp_204.txt.gz
Temperature
25 24 23 25 30 30 28 28 28 27 27 26 25 25 25 25 25 22 20 19 19 19 18 18 18 18 18 18 18 18 18 18 18 18 18 18 18 18 18 18 18 18 18 18 18 18 18 18 18
24 24 25 29 31 29 27 28 27 27 26 25 25 25 25 23 22 20 19 19 19 19 18 17 18 18 18 18 18 18 18 18 18 18 18 18 18 18 18 18 18 18 18 18 18 18 18 18 18
24 24 28 32 30 29 28 28 27 27 26 26 25 25 24 23 21 20 19 19 19 19 18 18 18 18 18 18 18 18 18 18 18 18 18 18 18 18 18 18 18 18 18 18 17 18 17 17 18
25 27 30 31 29 29 28 28 28 27 26 26 26 25 23 21 21 20 19 19 19 19 18 17 18 18 18 18 18 18 18 18 18 18 18 18 18 18 18 18 18 18 18 17 17 17 17 17 17
27 31 32 30 29 29 29 28 28 28 27 26 26 25 22 20 20 20 19 19 20 19 19 18 18 18 18 18 18 18 18 18 18 18 18 18 18 18 18 18 18 18 18 18 17 17 17 17 17
31 33 32 30 29 29 29 28 28 27 26 26 25 24 22 20 20 20 19 19 19 19 19 18 18 18 18 18 18 18 18 18 18 18 18 18 18 18 18 18 18 18 18 17 17 17 17 17 17
32 33 31 31 29 29 29 28 28 28 27 26 25 25 22 21 20 19 19 19 19 19 19 18 18 18 18 18 18 18 18 18 18 18 18 18 18 18 18 18 17 17 17 17 17 17 17 17 17
31 33 32 31 30 29 29 28 27 27 26 25 25 25 23 20 19 19 19 19 18 19 19 18 18 18 18 17 18 18 18 18 18 18 18 18 18 18 18 17 17 17 17 17 17 17 17 17 17
31 33 32 31 30 29 29 28 27 26 26 25 24 24 23 20 20 20 19 19 19 18 18 19 19 18 18 18 17 17 18 18 18 18 18 17 17 17 17 17 17 17 17 17 17 17 17 17 17
33 33 31 32 31 30 29 28 27 27 27 25 24 23 21 21 20 20 20 20 19 19 18 18 18 18 18 18 17 17 17 17 17 17 17 17 17 17 17 17 17 17 17 17 17 17 17 17 17
33 32 32 31 31 30 29 29 28 28 28 26 25 23 22 21 21 21 21 20 20 19 18 18 18 18 18 18 18 18 17 17 17 17 17 17 17 17 17 17 17 17 17 17 17 17 17 17 17
33 32 31 31 30 30 29 29 28 28 27 26 25 23 22 22 22 21 21 20 19 19 18 18 18 18 18 18 18 18 18 17 18 17 17 17 17 17 17 17 17 17 17 17 17 17 17 17 17
33 32 31 31 30 30 29 29 28 27 26 25 24 23 23 22 22 21 20 20 19 19 19 18 18 18 18 18 18 18 17 18 18 17 17 17 17 17 17 17 17 17 17 17 17 17 17 17 17
32 31 31 31 30 29 30 29 28 27 26 25 24 24 23 22 22 21 20 20 19 19 19 18 18 18 18 18 18 18 18 18 17 17 17 17 17 17 17 17 17 17 17 17 17 17 17 17 17
32 32 31 31 30 30 30 29 29 27 26 25 25 24 23 22 22 21 20 20 19 19 19 18 18 18 18 18 18 18 18 18 18 18 18 17 17 17 17 17 17 17 17 17 17 17 17 17 17
33 32 31 31 31 30 31 30 29 27 26 26 25 24 23 22 22 21 20 20 19 19 19 19 18 18 18 18 18 18 18 18 18 18 18 17 17 17 17 17 17 17 17 17 17 17 17 17 17
33 32 32 31 31 31 31 30 29 27 27 26 25 24 23 22 22 21 20 20 20 19 19 19 18 18 18 18 18 18 18 18 18 18 17 17 17 17 17 17 17 17 17 17 17 17 17 17 17
32 32 32 31 31 31 31 31 29 28 27 27 26 25 24 23 22 21 20 20 20 19 19 19 19 18 18 18 18 18 18 18 18 18 18 17 17 17 17 17 17 17 17 17 17 17 17 17 17
33 33 32 32 31 31 31 30 30 28 28 27 26 25 24 24 23 21 21 20 20 19 19 19 19 19 18 18 18 18 18 18 18 18 18 18 17 17 17 17 17 17 17 17 17 17 17 17 17
32 32 32 31 31 31 31 31 30 29 28 28 27 26 25 24 23 21 21 20 20 20 19 19 19 19 19 18 18 18 18 17 18 18 17 17 17 17 17 17 17 17 17 17 17 17 17 17 17
32 32 32 31 30 31 31 30 30 29 28 27 27 26 25 24 23 22 21 20 20 20 19 19 19 19 19 18 18 18 18 18 18 17 17 17 17 17 17 17 17 17 17 17 17 17 17 17 17
32 33 32 31 31 32 31 31 31 30 29 29 28 27 26 25 24 22 21 21 20 20 19 19 19 19 19 19 18 18 18 18 18 17 17 17 17 17 17 17 17 17 17 17 17 17 17 17 17
32 32 32 32 32 32 31 31 32 30 30 29 29 27 26 25 24 23 22 21 20 20 19 19 19 19 19 19 18 18 18 18 18 17 17 17 17 17 17 17 17 17 17 17 17 17 17 17 17
31 31 31 31 32 31 31 31 31 31 30 30 29 27 26 25 24 23 22 21 20 20 20 19 19 19 19 19 18 18 18 18 18 17 17 17 17 17 17 17 17 17 17 17 17 17 17 17 17
32 31 31 30 30 31 31 30 31 31 31 30 29 27 26 25 24 23 22 21 21 20 20 19 19 19 19 18 18 18 18 18 17 17 17 17 17 17 17 17 17 17 17 17 17 17 17 17 17
32 32 31 30 30 31 30 31 32 31 30 29 28 27 26 25 24 23 22 21 21 20 20 19 19 19 19 18 18 18 18 17 17 17 17 17 17 17 17 17 17 17 17 17 17 17 16 17 17
31 32 33 32 31 31 31 31 31 30 29 29 28 27 26 25 24 24 23 22 21 20 20 20 19 19 18 18 18 18 18 17 17 17 17 17 17 17 17 17 17 17 17 17 17 17 16 16 16
32 32 32 31 30 30 30 31 31 30 30 29 29 27 26 25 24 24 23 22 21 21 20 19 19 19 18 18 18 18 17 17 17 17 17 17 17 17 17 17 17 17 17 17 17 16 16 16 16
30 31 31 31 31 30 30 31 32 31 30 30 29 27 26 25 25 24 23 22 21 21 20 20 19 19 18 18 18 18 17 17 17 17 17 17 17 17 17 17 17 17 17 16 16 16 16 16 16
31 31 31 30 30 30 31 31 31 31 30 29 29 27 26 25 25 24 23 22 21 21 20 19 19 19 18 18 18 18 17 17 17 17 17 17 17 17 17 16 16 16 16 16 16 16 15 15 15

GEFSSGP_850_meantemp_210.txt.gz
Temperature
26 26 25 25 27 29 29 29 30 29 29 29 28 28 27 26 25 23 22 21 21 20 20 20 19 19 19 18 18 18 18 18 18 18 18 18 18 18 18 18 18 18 18 18 18 18 18 18 18
26 25 25 28 29 29 29 30 29 29 29 29 28 27 26 25 24 23 22 21 21 20 19 19 19 19 19 18 18 18 18 18 18 18 18 18 18 18 18 18 18 18 18 18 18 18 18 18 18
26 26 28 30 30 29 29 30 30 30 29 28 27 26 25 25 24 23 22 22 21 20 20 20 19 19 19 18 18 18 18 18 18 18 18 18 18 18 18 18 18 18 18 18 18 18 18 18 18
26 29 31 32 31 31 31 31 31 30 29 29 27 26 24 24 24 23 22 22 21 20 20 20 19 19 19 18 18 18 18 18 18 18 18 18 18 18 18 18 18 18 18 18 18 18 18 18 18
28 30 32 31 31 31 32 31 31 30 29 28 26 25 24 24 23 23 22 22 21 20 20 20 20 19 19 19 18 18 18 18 18 18 18 18 18 18 18 18 18 18 18 18 18 18 18 18 18
31 33 32 31 31 32 32 31 30 30 29 27 26 25 24 23 23 23 22 22 21 21 20 20 20 19 19 19 19 18 18 18 18 18 18 18 18 18 18 18 18 18 18 18 18 18 18 18 18
33 33 32 32 31 31 31 31 31 30 29 28 27 25 24 23 23 22 22 22 21 21 20 19 19 19 19 19 19 19 18 18 18 18 18 18 18 18 18 18 18 18 18 18 18 18 18 18 18
34 34 33 32 32 31 32 31 30 30 29 28 27 26 24 23 23 22 22 22 21 21 20 20 19 19 19 19 19 19 19 18 18 18 18 18 18 18 18 18 18 18 18 18 18 18 18 18 18
35 34 32 33 32 32 32 31 30 29 28 28 27 26 24 23 23 23 22 22 21 21 20 20 20 19 19 19 19 19 19 18 18 18 18 18 18 18 18 18 18 18 18 18 18 18 18 18 18
35 33 33 34 34 33 32 31 30 29 28 27 26 25 24 24 23 23 22 22 21 21 20 20 20 20 19 19 19 19 18 18 18 18 18 18 18 18 18 18 18 18 18 18 18 18 18 18 18
36 34 34 34 34 33 32 32 31 30 29 28 26 25 24 24 23 23 23 22 21 21 20 20 20 20 19 19 19 19 18 18 18 18 18 18 18 18 18 18 18 18 18 18 18 18 18 18 18
35 35 35 34 33 33 33 32 31 30 29 28 26 25 25 24 24 23 23 22 21 21 20 20 19 19 19 19 19 19 19 18 18 18 18 18 18 18 18 18 18 18 18 18 18 18 18 18 18
35 35 35 34 33 33 32 32 31 30 29 28 27 26 25 24 24 23 23 22 21 21 20 20 19 19 19 19 19 19 19 19 18 18 18 18 18 18 18 18 18 18 18 18 18 18 18 18 18
35 35 35 34 33 32 31 30 30 30 29 28 27 26 25 25 24 23 22 22 21 21 20 20 19 19 19 19 19 19 19 19 18 18 18 18 18 18 18 18 18 18 18 18 18 18 18 18 18
35 35 34 34 33 32 31 30 30 30 29 28 27 26 26 25 24 23 22 22 21 20 20 20 19 19 19 19 19 19 19 19 19 18 18 18 18 18 18 18 18 18 18 18 18 18 18 18 18
35 34 33 33 34 33 32 29 30 29 29 29 28 27 26 25 24 23 23 22 21 20 20 20 20 19 19 19 19 19 19 19 19 18 18 18 18 18 18 18 18 18 18 18 18 18 18 18 18
34 33 32 33 34 34 33 30 31 30 29 29 28 27 26 25 24 24 23 22 21 21 20 20 20 19 19 19 19 19 19 19 18 18 18 18 18 18 18 18 18 18 18 18 18 18 18 18 18
33 33 32 32 34 34 33 32 31 31 30 30 29 27 26 25 24 24 23 22 21 20 20 20 20 19 19 19 19 19 19 19 18 18 18 18 18 18 18 18 18 18 18 18 18 18 18 18 18
34 33 33 34 35 34 33 32 32 32 31 30 29 28 27 25 25 24 23 22 21 21 20 20 20 19 19 19 19 19 19 19 19 18 18 18 18 18 18 18 18 18 18 18 18 18 18 18 18
34 34 33 34 35 34 33 32 32 32 32 31 30 28 27 26 25 24 23 22 21 21 20 20 20 19 19 19 19 19 19 19 19 19 18 18 18 18 18 18 18 18 18 18 18 18 18 18 18
35 34 34 34 34 34 33 30 30 31 32 31 30 29 28 27 25 24 23 23 22 21 21 20 20 20 19 19 19 19 19 19 19 19 19 18 18 18 18 18 18 18 18 18 18 18 18 18 18
34 35 35 34 33 33 33 30 29 30 31 32 31 30 29 28 26 24 24 23 22 21 21 20 20 20 20 19 19 19 19 19 19 19 19 18 18 18 18 18 18 18 18 18 18 18 18 18 18
35 36 35 35 34 33 33 31 30 30 30 31 31 30 29 28 27 25 24 23 22 22 21 20 20 20 20 19 19 19 19 19 19 19 19 18 18 18 18 18 18 18 18 18 18 18 18 18 18
35 35 34 34 34 32 32 32 30 30 30 31 31 30 30 28 27 25 24 23 23 22 21 20 20 20 20 19 19 19 19 19 19 19 19 18 18 18 18 18 18 18 18 18 18 18 18 18 18
34 33 31 31 31 31 32 32 31 31 32 32 31 30 30 28 27 26 24 23 23 22 21 21 20 20 20 19 19 19 19 19 19 18 18 18 18 18 18 18 18 18 18 18 17 17 17 17 17
34 33 31 30 30 30 30 30 31 33 33 33 31 30 30 29 27 26 25 24 23 22 21 21 20 20 20 19 19 19 19 18 18 18 18 18 18 18 18 18 18 18 18 17 17 17 17 17 17
34 33 34 32 31 30 29 30 30 32 33 33 32 30 30 29 27 26 25 24 23 22 21 21 20 20 20 19 19 19 19 18 18 18 18 18 18 18 18 18 18 17 17 17 17 17 17 17 17
34 34 33 32 30 29 29 28 28 29 31 32 32 31 30 29 28 26 25 24 23 23 22 21 20 20 20 19 19 19 19 18 18 18 18 18 18 18 18 17 17 17 17 17 17 17 17 16 16
33 33 32 32 31 30 29 29 29 28 29 31 31 30 29 28 28 27 26 25 24 23 22 21 20 20 19 19 19 19 19 18 18 18 18 18 18 18 17 17 17 17 17 17 17 16 16 16 16
34 33 33 31 30 31 31 29 30 30 30 30 30 30 29 28 28 27 26 24 23 23 22 21 20 20 19 19 19 19 18 18 18 18 18 18 17 17 17 17 17 17 17 17 16 16 16 16 16

GEFSSGP_850_meantemp_216.txt.gz
Temperature
25 24 23 23 22 21 23 24 25 24 24 24 23 23 22 21 20 19 19 19 20 20 19 19 19 19 19 19 19 19 18 18 18 18 18 18 18 18 18 18 18 18 18 18 18 18 18 18 18
25 24 24 23 22 21 23 24 24 25 24 24 23 23 22 21 20 19 19 19 20 20 19 19 19 19 19 19 18 18 18 18 18 18 18 18 18 18 18 18 18 18 18 18 18 18 18 18 18
25 24 24 22 22 22 24 25 25 25 25 24 23 23 22 21 20 19 20 20 20 20 20 19 19 19 19 19 19 19 19 18 18 18 18 18 18 18 18 18 18 18 18 18 18 18 18 18 18
25 24 24 22 24 25 25 25 26 25 24 24 23 22 22 21 21 20 20 20 20 20 20 20 19 19 19 19 19 19 18 18 18 18 18 18 18 18 18 18 18 18 18 18 18 18 18 18 18
26 25 23 23 25 26 26 26 26 25 24 23 22 21 21 21 21 20 20 20 20 20 20 19 19 19 19 19 19 18 18 18 18 18 18 18 18 18 18 18 18 18 18 18 18 18 18 18 18
26 24 23 23 25 26 26 26 25 24 23 23 22 21 21 21 20 20 20 20 20 20 20 20 19 19 19 19 19 18 18 19 18 18 18 18 18 18 18 18 18 18 18 18 18 18 18 18 18
26 24 24 25 25 26 26 26 25 24 24 23 22 21 21 21 21 20 20 20 20 20 20 20 19 19 19 19 19 18 18 18 18 18 18 18 18 18 18 18 18 18 18 18 18 18 18 18 18
28 24 25 25 25 26 27 27 26 25 24 23 23 21 21 21 21 21 20 20 20 20 20 19 19 19 19 19 19 19 18 18 18 18 18 18 18 18 18 18 18 18 18 18 18 18 18 18 18
29 25 24 25 26 26 27 26 26 25 24 24 23 22 22 21 21 21 20 20 20 19 19 19 19 19 19 19 19 19 18 18 18 18 18 18 18 18 18 18 18 18 18 18 18 18 18 18 18
28 25 26 27 27 27 27 26 26 25 24 23 23 22 22 22 21 21 20 20 20 19 19 19 19 19 19 19 19 19 18 18 18 18 18 18 18 18 18 18 18 18 18 18 18 18 18 18 18
28 26 28 28 28 28 27 26 26 24 23 23 22 22 22 22 21 21 20 20 20 19 19 19 19 19 19 19 19 19 18 18 18 18 18 18 18 18 18 18 18 18 18 18 18 18 18 18 18
29 29 29 29 29 28 27 27 26 25 24 24 23 23 22 22 21 21 21 20 20 20 20 19 19 19 19 19 19 18 18 18 18 18 18 18 18 18 18 18 18 18 18 18 18 18 18 18 18
29 29 29 29 29 28 28 27 26 25 24 24 23 23 22 22 21 21 21 20 20 20 20 19 19 19 19 19 19 18 18 18 18 18 18 18 18 18 18 18 18 18 18 18 18 18 18 18 18
29 29 29 29 28 28 27 26 26 25 24 24 23 23 22 22 22 21 21 21 20 20 20 19 19 19 19 19 19 18 18 18 18 18 18 18 18 18 18 18 18 18 18 18 18 18 18 18 18
30 28 28 28 28 28 27 25 25 25 24 24 23 23 23 22 22 22 21 21 21 20 20 20 19 19 19 19 19 19 19 18 18 18 18 18 18 18 18 18 18 18 18 18 18 18 18 18 18
28 26 26 27 28 27 26 24 25 25 24 23 23 23 22 22 22 22 21 21 21 20 20 20 20 19 19 19 19 19 18 18 18 18 18 18 18 18 18 18 18 18 18 18 18 18 18 18 18
26 25 26 27 28 27 25 24 25 25 24 23 23 23 22 22 22 22 21 21 21 20 20 20 20 19 19 19 19 19 18 18 18 18 18 18 18 18 18 18 18 18 18 18 18 18 18 18 18
25 26 26 27 27 27 25 24 25 25 24 24 23 23 22 22 22 22 22 21 21 21 20 20 20 19 19 19 19 19 18 18 18 18 18 18 18 18 18 18 18 18 18 18 18 18 18 18 18
27 27 27 27 28 26 25 24 25 25 25 24 23 23 22 22 22 22 22 21 21 21 20 20 20 20 19 19 19 19 19 18 18 18 18 18 18 18 18 18 18 18 18 18 18 18 18 18 18
28 27 27 27 28 26 25 25 25 25 24 24 23 23 23 22 22 22 22 22 21 21 21 20 20 20 20 19 19 19 19 18 18 18 18 18 18 18 18 18 18 18 18 18 18 18 18 18 18
28 27 27 27 27 26 25 24 24 24 25 25 24 23 23 23 22 22 22 22 21 21 21 21 20 20 20 19 19 19 18 18 18 18 18 18 18 18 18 18 18 18 18 18 18 18 18 18 17
27 28 29 28 26 24 25 23 23 23 24 24 24 23 23 23 23 23 22 22 22 21 21 21 20 20 20 19 19 19 18 18 18 18 18 18 18 18 18 18 18 18 18 18 18 18 17 17 17
28 29 28 28 26 24 24 23 23 22 23 23 24 24 24 24 23 23 23 22 22 22 21 21 20 20 20 19 19 19 18 19 18 18 18 18 18 18 18 18 18 18 18 18 18 17 17 17 17
30 28 26 24 23 23 24 23 23 22 23 23 24 24 24 24 23 23 23 22 22 21 21 21 20 20 20 19 19 19 19 19 18 18 18 18 18 18 18 18 18 18 17 17 17 17 17 17 17
28 24 23 24 22 23 23 23 22 24 24 24 24 24 24 24 23 23 23 22 22 21 21 21 20 20 20 19 19 19 19 18 18 18 18 18 18 18 18 18 17 17 17 17 17 17 17 17 17
27 24 23 24 23 22 23 23 23 24 24 25 25 24 24 23 23 23 23 22 22 22 21 21 20 20 20 19 19 19 18 18 18 18 18 18 18 18 18 18 17 17 17 17 17 17 17 17 17
28 25 23 22 22 22 22 23 23 24 24 24 24 23 23 23 23 23 23 22 22 22 21 21 20 20 20 19 19 19 18 18 18 18 18 18 18 18 17 17 17 17 17 17 17 17 17 17 17
28 26 22 22 22 22 23 22 21 23 23 23 23 23 23 23 23 23 22 22 22 21 21 21 20 20 20 19 19 19 18 18 18 18 18 18 17 17 17 17 17 17 17 17 17 17 17 16 16
28 26 22 20 21 21 22 22 23 22 23 22 22 23 23 23 23 23 22 22 22 21 21 21 20 20 20 19 19 19 18 18 18 18 18 18 17 17 17 17 17 17 17 17 17 17 16 16 16
27 26 23 23 22 20 21 22 24 23 23 23 23 23 23 23 23 23 22 22 22 21 21 21 21 20 20 20 19 19 18 18 18 18 17 17 17 17 17 17 17 17 17 17 16 16 16 16 16

GEFSSGP_850_meantemp_222.txt.gz
Temperature
23 22 22 21 20 19 21 22 22 22 21 21 21 21 20 19 19 19 19 19 19 19 19 18 18 18 18 18 18 18 18 18 18 18 18 18 18 18 18 18 18 18 18 18 18 18 18 18 18
23 22 22 21 20 20 21 22 22 22 22 22 21 20 19 18 18 19 19 19 19 19 19 19 18 18 18 18 18 18 18 18 18 18 18 18 18 18 18 18 18 18 18 18 18 18 18 18 18
23 22 22 20 20 20 22 22 22 22 22 22 21 20 19 19 19 19 19 19 19 19 19 18 18 18 18 18 18 18 18 18 18 18 18 18 18 18 18 18 18 18 18 18 18 18 18 18 18
23 23 22 20 22 22 22 22 22 22 22 22 21 20 19 19 20 19 19 19 19 19 19 18 18 18 18 18 18 18 18 18 18 18 18 18 18 18 18 18 18 18 18 18 18 18 18 18 18
23 23 21 21 22 23 23 23 23 22 22 21 21 19 19 19 20 20 19 19 19 19 19 18 18 18 18 18 18 18 18 18 18 18 18 18 18 18 18 18 18 18 18 18 18 18 18 18 17
24 21 21 21 23 23 23 23 23 22 21 21 20 19 19 20 20 20 19 19 19 19 19 18 18 18 18 18 18 18 18 18 18 18 18 18 18 18 18 18 18 18 18 18 18 17 18 17 17
23 21 22 22 23 23 23 23 22 22 21 21 21 19 19 19 20 19 19 19 19 19 19 18 18 18 18 18 18 18 18 18 18 18 18 18 18 18 18 18 18 18 18 18 18 17 17 17 17
25 21 23 22 23 23 23 23 23 22 22 22 21 20 19 19 19 19 19 19 19 19 19 18 18 18 18 18 18 18 18 18 18 18 18 18 18 18 18 18 18 18 18 18 18 17 17 17 17
25 21 22 23 23 23 23 23 23 23 22 21 21 21 21 20 19 19 19 19 19 19 19 18 18 18 18 18 18 18 18 18 18 18 18 18 18 18 18 18 18 18 18 18 18 17 17 17 17
24 22 23 24 24 23 24 23 23 22 21 21 21 21 20 20 19 19 19 19 19 19 19 19 18 18 18 18 18 18 18 18 18 18 18 18 18 18 18 18 18 18 18 18 18 18 17 17 17
24 23 24 25 25 25 24 23 23 22 21 21 21 20 20 20 19 19 19 19 19 19 19 19 19 18 18 18 18 18 18 18 18 18 18 18 18 18 18 18 18 18 18 17 17 17 17 17 17
25 25 25 25 25 25 24 24 23 22 22 22 22 21 20 20 20 19 19 19 19 19 19 19 19 18 18 18 18 18 18 18 18 18 18 18 18 18 18 18 18 18 18 18 17 17 17 17 17
25 25 26 26 25 25 24 23 23 22 23 22 21 21 20 20 20 20 19 19 19 19 19 19 19 18 18 18 18 18 18 18 18 18 18 18 18 18 18 18 18 18 18 18 18 17 17 17 17
26 25 25 25 25 25 24 23 23 22 22 22 21 20 20 20 20 20 20 19 19 19 19 19 19 18 18 18 18 18 18 18 18 18 18 18 18 18 18 18 18 18 18 18 18 17 17 17 17
26 25 25 25 25 24 24 23 22 22 22 21 21 20 20 20 20 20 20 20 20 19 19 19 19 18 18 18 18 18 18 18 18 18 18 18 18 18 18 18 18 18 18 18 17 17 17 17 17
25 24 24 25 24 24 24 22 22 22 21 21 20 20 20 21 20 21 20 20 20 20 19 19 19 19 18 18 18 18 18 18 18 18 18 18 18 18 18 18 18 18 18 18 18 17 17 17 17
23 23 24 25 25 24 23 22 22 22 21 21 21 21 21 21 21 20 20 20 20 20 20 19 19 19 19 18 18 18 18 18 18 18 18 18 18 18 18 18 18 18 18 18 18 17 17 17 17
24 24 24 24 24 24 23 22 22 22 21 21 21 21 21 21 21 21 21 20 20 20 20 19 19 19 19 18 18 18 18 18 18 18 18 18 18 18 18 18 18 18 18 18 17 17 17 17 17
25 24 24 24 24 23 23 22 22 22 21 21 21 21 21 21 21 21 21 20 20 20 20 19 19 19 19 19 18 18 18 18 18 18 18 18 18 18 18 18 18 18 18 18 17 17 17 17 17
25 24 24 24 24 23 22 22 22 22 21 21 21 21 21 21 21 21 21 21 20 20 20 20 19 19 19 19 19 18 18 18 18 18 18 18 18 18 18 18 18 18 17 17 17 17 17 17 17
25 24 24 24 24 23 23 23 22 22 22 22 22 22 22 22 22 22 21 21 21 20 20 20 20 19 19 19 18 18 18 18 18 18 18 18 18 17 17 17 17 17 17 17 17 17 17 17 17
25 25 25 24 23 22 23 22 22 21 21 21 21 21 22 22 22 22 22 21 21 21 20 20 20 19 19 19 19 18 18 18 18 18 18 18 17 17 17 17 17 17 17 17 17 17 17 17 17
25 25 24 24 22 22 22 21 21 20 20 21 21 21 22 22 22 22 22 22 21 21 20 20 20 19 19 19 19 18 18 18 18 18 18 18 17 17 17 17 17 17 17 17 17 17 17 17 17
25 23 22 20 20 21 21 21 21 20 20 21 21 21 22 22 22 22 22 22 21 21 20 20 20 20 19 19 19 19 18 18 18 18 18 18 17 17 17 17 17 17 17 17 17 17 17 17 17
24 22 21 22 20 21 21 21 21 21 21 21 21 21 22 22 22 22 22 21 21 21 20 20 20 20 19 19 19 19 19 18 18 18 18 18 18 17 17 17 17 17 17 17 17 17 17 17 17
23 22 22 22 21 21 21 21 21 22 22 22 22 22 22 22 22 22 22 22 21 21 21 20 20 20 20 19 19 19 18 18 18 18 18 18 18 17 17 17 17 17 17 17 17 17 16 16 16
23 22 21 19 20 21 20 21 21 21 21 21 21 21 21 21 22 22 22 22 21 21 21 20 20 20 19 19 19 19 18 18 18 18 17 17 17 17 17 17 17 17 17 16 16 16 16 16 16
23 19 19 19 20 21 22 21 21 22 21 20 20 20 21 21 21 22 22 22 21 21 21 20 20 20 20 19 19 19 18 18 18 17 17 17 17 17 17 17 17 17 16 16 16 16 16 16 16
22 21 18 17 19 20 21 21 21 20 20 20 20 21 21 21 21 22 22 22 21 21 21 20 20 20 20 19 19 19 18 18 18 17 17 17 17 17 17 17 16 16 16 16 16 16 16 16 16
23 21 19 21 19 18 19 21 21 20 20 20 20 21 21 21 22 22 22 21 21 21 21 20 20 20 19 19 19 19 18 18 18 17 17 17 17 17 17 16 16 16 16 16 16 16 16 16 16

GEFSSGP_850_meantemp_228.txt.gz
Temperature
23 22 21 22 28 29 27 27 27 27 26 25 24 24 24 24 24 22 20 19 19 19 18 18 18 18 18 18 18 18 18 18 18 18 18 18 18 18 18 18 18 18 18 18 18 18 18 18 18
22 22 23 27 30 28 27 27 27 26 25 24 24 24 24 23 21 20 19 19 19 19 18 18 18 18 18 18 18 18 18 18 18 18 18 18 18 18 18 18 18 18 18 18 18 18 18 18 18
22 22 26 30 29 28 27 27 26 26 25 25 24 24 23 22 21 20 19 19 19 19 18 18 18 18 18 18 18 18 18 18 18 18 18 18 18 18 18 18 18 18 18 18 18 18 18 18 18
23 26 29 30 28 28 28 27 27 27 25 25 25 24 22 20 21 20 19 19 19 19 18 18 18 18 18 18 18 18 18 18 18 18 18 18 18 18 18 18 18 18 18 18 18 18 18 18 18
25 29 31 30 28 28 28 27 27 27 26 25 25 24 22 20 20 20 19 19 20 19 19 18 18 18 18 18 18 18 18 18 18 18 18 18 18 18 18 18 18 18 18 18 18 18 18 18 18
29 31 31 29 28 28 28 27 27 27 26 25 24 24 21 20 20 20 19 19 19 19 19 18 18 18 18 18 18 18 18 18 18 18 18 18 18 18 18 18 18 18 18 18 18 18 18 18 17
30 32 30 30 29 28 28 27 27 27 26 25 25 24 22 21 20 19 19 19 19 19 19 18 18 18 18 18 18 18 18 18 18 18 18 18 18 18 18 18 18 18 18 18 18 18 18 17 17
30 32 31 30 29 29 28 27 27 27 26 24 24 25 23 20 20 19 19 19 19 19 19 18 18 18 18 18 18 18 18 18 18 18 18 18 18 18 18 18 18 18 18 18 18 18 17 17 17
29 32 31 31 30 29 28 28 26 26 25 24 24 24 22 20 20 20 20 19 19 18 18 19 18 18 18 18 18 18 18 18 18 18 18 18 17 17 17 17 18 18 18 18 18 18 18 17 17
31 32 31 31 31 30 29 28 27 27 26 25 23 22 21 20 20 20 20 20 19 19 18 18 18 18 18 18 18 18 18 17 17 17 17 17 17 17 17 18 18 18 18 18 18 18 18 17 17
32 32 31 31 30 29 29 28 27 28 27 26 24 22 21 21 21 21 21 20 20 19 18 18 18 18 18 18 18 18 18 17 17 17 17 17 17 17 17 17 17 18 18 17 17 17 17 17 17
32 31 31 31 29 29 29 28 28 27 27 25 24 23 22 22 21 21 21 20 20 19 19 18 18 18 18 18 18 18 18 18 18 17 17 17 17 17 17 17 17 17 17 17 17 17 17 17 17
32 31 30 30 29 29 29 28 28 27 25 24 24 23 22 22 22 21 20 20 19 19 19 18 18 18 18 18 18 18 18 18 18 17 17 17 17 17 17 17 17 17 17 17 17 17 17 17 17
31 31 30 30 29 29 29 28 28 26 25 24 24 23 23 22 22 21 20 20 19 19 18 18 18 18 18 18 18 18 18 18 18 17 17 17 17 17 17 17 17 17 17 17 17 17 17 17 17
31 31 31 30 30 29 29 29 28 26 25 25 24 23 22 22 21 21 20 20 19 19 19 18 18 18 18 18 18 18 18 18 18 18 17 17 17 17 17 17 17 17 17 17 17 17 17 17 17
32 32 31 30 30 29 30 29 28 26 25 25 24 23 22 22 21 21 20 20 19 19 19 19 18 18 18 18 18 18 18 18 18 18 17 17 17 17 17 18 18 17 17 17 17 17 17 17 17
32 32 31 31 31 30 30 30 29 27 26 26 25 24 23 22 22 21 20 20 19 19 19 19 19 18 18 18 18 18 18 18 18 18 17 17 17 17 18 18 18 18 17 17 18 17 17 17 17
32 32 32 31 31 31 30 30 29 27 27 26 25 24 23 23 22 21 21 20 19 19 19 19 19 19 18 18 18 18 18 18 18 18 18 17 17 17 18 18 18 17 17 17 17 17 17 17 17
33 32 32 31 31 31 30 30 29 28 27 27 26 25 24 24 23 22 21 21 20 19 19 19 19 19 19 18 18 18 18 18 18 17 18 18 17 17 18 18 18 18 17 17 17 17 17 17 17
32 32 32 31 31 31 30 30 30 29 28 27 26 25 25 24 23 22 21 21 20 20 19 19 19 19 19 18 18 18 18 18 18 18 18 18 17 18 17 18 18 18 17 17 17 17 17 17 17
32 32 32 31 31 31 30 30 30 29 28 27 27 26 25 25 24 22 22 21 21 20 20 19 19 19 19 19 18 18 18 18 18 18 18 17 17 17 17 17 17 18 17 17 17 17 17 17 17
32 32 32 31 31 31 31 31 30 30 29 28 27 26 26 25 24 23 22 22 21 21 20 20 19 19 19 19 18 18 18 18 18 18 18 17 17 17 17 17 17 17 17 17 17 17 17 17 17
32 32 32 32 31 31 31 31 31 30 30 29 28 27 26 25 24 23 23 22 21 21 20 20 20 19 19 19 19 18 18 18 18 18 18 18 17 17 17 17 17 17 17 17 17 17 17 17 17
31 31 31 31 32 31 31 31 31 31 30 30 29 27 26 26 24 23 23 22 21 21 20 20 20 20 19 19 19 18 18 18 18 18 18 18 18 17 17 17 17 17 17 17 17 17 17 17 17
31 31 30 30 30 31 30 30 31 31 30 30 30 28 26 25 25 24 23 22 21 21 20 20 20 20 19 19 18 18 18 18 18 18 18 18 18 18 17 17 17 17 17 17 17 17 17 17 17
31 32 30 30 30 31 30 30 31 30 29 29 28 28 26 26 25 24 23 22 21 21 20 20 20 19 19 19 19 18 18 18 18 18 18 18 17 17 17 17 17 17 17 17 17 17 16 16 16
31 32 33 32 31 31 31 31 31 30 30 29 28 27 26 26 25 24 23 22 21 21 20 20 20 19 19 19 19 18 18 18 18 18 18 17 17 17 17 17 17 17 17 17 17 16 16 16 16
32 32 32 31 30 30 30 31 31 30 30 29 29 28 26 25 25 24 23 22 22 21 20 20 19 19 19 19 19 18 18 18 18 18 18 17 17 17 17 17 17 17 17 17 17 16 16 16 16
30 31 31 31 31 30 30 31 31 30 30 29 28 27 26 25 24 24 23 22 22 21 20 20 20 19 19 19 19 18 18 18 17 17 17 17 17 17 17 17 17 17 17 16 16 16 16 16 16
31 31 31 30 30 30 31 30 30 30 30 29 28 26 25 25 24 23 23 22 22 21 20 20 20 19 19 19 19 18 18 17 17 17 17 17 17 17 17 16 16 16 16 16 16 16 16 16 15

GEFSSGP_850_meantemp_234.txt.gz
Temperature
24 24 23 23 25 26 28 28 29 28 28 28 27 27 26 25 23 22 21 21 20 20 19 19 19 19 19 19 19 19 19 18 18 18 18 18 18 18 18 18 18 18 18 18 18 18 18 18 18
24 23 24 26 27 27 27 29 28 28 28 28 27 26 25 24 23 22 21 21 20 20 19 19 19 19 19 19 19 19 19 19 18 18 18 18 18 18 18 18 18 18 18 18 18 18 18 18 18
24 24 26 28 29 28 28 29 29 29 28 28 27 25 25 24 23 22 21 21 21 20 20 20 19 19 19 19 19 18 19 18 18 18 18 18 18 18 18 18 18 18 18 18 18 18 18 18 18
24 27 28 30 30 30 30 30 30 29 29 28 27 25 24 23 23 22 22 21 21 20 19 20 19 19 19 19 19 19 18 18 18 18 18 18 18 18 18 18 18 18 18 18 18 18 18 18 18
26 28 30 31 30 31 31 31 30 29 29 27 26 24 23 23 23 22 22 21 21 20 20 20 20 19 19 19 19 19 19 18 18 18 18 18 18 18 18 18 18 18 18 18 18 18 18 18 18
28 31 31 30 30 31 31 31 30 29 28 27 26 24 23 23 22 22 22 21 21 20 20 20 20 19 19 19 19 19 19 19 19 18 18 18 18 18 18 18 18 18 18 18 18 18 18 18 18
30 31 31 31 31 31 31 31 30 30 29 28 26 25 23 23 22 22 22 22 21 20 20 20 20 19 19 19 19 19 19 19 19 19 18 18 18 18 18 18 18 18 18 18 18 18 18 18 18
32 33 32 32 31 31 31 31 30 29 28 27 27 25 23 23 22 22 22 21 21 21 20 19 19 19 19 19 19 19 19 19 19 18 18 18 18 18 18 18 18 18 18 18 18 18 18 18 18
33 33 32 32 31 31 32 31 30 29 28 27 26 25 24 23 23 22 22 21 21 20 20 20 20 19 19 19 19 19 19 19 19 18 18 18 18 18 18 18 18 18 18 18 18 18 18 18 18
34 33 33 33 33 32 32 31 30 29 28 27 25 24 24 23 23 22 22 21 21 20 20 20 20 20 19 19 19 19 19 19 18 18 18 18 18 18 18 18 18 18 18 18 18 18 18 18 18
35 34 34 34 33 33 32 31 30 30 28 27 25 24 24 24 23 23 22 22 21 21 20 20 20 20 19 19 19 19 18 18 18 18 18 18 18 18 18 18 18 18 18 18 18 18 18 18 18
35 35 34 34 33 33 32 31 31 30 29 27 26 25 24 24 23 23 22 22 21 21 20 20 20 19 19 19 19 19 19 19 18 18 18 18 18 18 18 18 18 18 18 18 18 18 18 18 18
35 34 34 34 33 33 32 31 30 29 28 27 26 25 25 24 24 23 22 22 21 21 20 20 19 19 19 19 19 19 19 19 19 19 18 18 18 18 18 18 18 18 18 18 18 18 18 18 18
34 34 34 34 33 33 32 31 30 29 28 27 27 26 25 25 24 23 22 22 21 20 20 20 19 19 19 19 19 19 19 19 19 19 18 18 18 18 18 18 18 18 18 18 18 18 18 18 18
34 34 33 34 34 33 31 30 29 29 28 28 27 26 26 25 24 23 22 22 21 20 20 20 19 19 19 19 19 19 19 19 19 19 18 18 18 18 18 18 18 18 18 18 18 18 18 18 18
34 33 31 33 34 33 31 28 30 29 29 28 27 27 26 25 24 23 22 22 21 20 20 20 20 19 19 19 19 19 19 19 19 19 18 18 18 18 18 18 18 18 18 18 18 18 18 18 18
33 32 31 33 34 33 32 30 31 30 29 29 28 27 26 25 24 23 23 22 21 20 20 20 20 19 19 19 19 19 19 19 19 19 19 18 18 18 18 18 18 18 18 18 18 18 18 18 18
32 32 32 32 34 34 32 31 31 30 30 29 28 27 26 25 25 24 23 22 21 20 20 20 20 19 19 19 19 19 19 19 19 19 19 18 18 18 18 18 18 18 18 18 18 18 18 18 18
34 33 33 33 34 34 33 32 31 31 31 30 29 28 27 26 25 24 23 23 21 21 20 20 20 19 19 19 19 19 19 19 19 19 19 19 18 18 18 18 18 18 18 18 18 18 18 18 18
35 34 33 33 34 34 33 32 32 32 32 30 29 28 27 26 25 24 24 23 22 21 20 20 20 20 20 20 19 19 19 19 19 19 19 18 18 18 18 18 18 18 18 18 18 18 18 18 18
34 34 34 33 33 33 33 31 30 31 32 31 30 29 28 27 26 25 24 23 22 21 21 20 20 20 20 20 19 19 19 19 19 19 19 19 18 18 18 18 19 18 18 18 18 18 18 18 18
34 35 35 34 33 32 32 29 29 30 31 31 30 29 28 28 26 25 24 23 23 22 21 20 20 20 20 20 20 19 19 19 19 19 19 19 18 18 18 18 18 18 18 18 18 18 18 18 18
35 36 35 34 33 32 32 31 29 30 30 30 30 30 29 28 27 26 25 24 23 22 21 21 20 20 20 20 20 19 19 19 19 19 19 19 18 18 18 18 18 18 18 18 18 18 18 18 18
36 35 34 33 32 31 31 31 29 29 29 29 30 30 29 29 27 26 25 24 23 23 22 21 20 20 20 20 19 19 19 19 19 19 19 19 18 18 18 18 18 18 18 18 18 18 18 18 18
35 33 31 31 30 30 32 31 30 31 31 30 30 31 30 29 28 26 25 24 23 23 22 21 20 20 20 20 19 19 19 19 19 19 19 19 18 18 18 18 18 18 18 18 18 18 18 17 18
34 33 31 30 30 30 30 30 30 32 32 31 31 31 30 29 28 27 25 24 23 23 22 21 20 20 20 20 19 19 19 19 19 19 19 19 18 18 18 18 18 18 18 18 18 17 17 17 17
34 33 34 32 31 29 29 28 30 31 32 32 31 30 30 29 28 27 26 25 23 23 22 21 20 20 20 20 19 19 19 19 19 19 18 18 18 18 18 18 18 18 18 17 17 17 17 17 17
34 34 33 32 30 29 30 29 28 29 30 31 31 30 30 29 28 27 26 25 23 22 22 21 20 20 20 20 20 19 19 19 19 18 18 18 18 18 18 18 18 18 17 17 17 17 17 17 17
34 33 33 32 32 30 29 28 29 28 30 30 30 30 29 28 28 27 25 25 24 23 22 21 20 20 20 19 19 19 19 19 19 19 18 18 18 18 18 17 17 17 17 17 17 17 17 17 16
34 34 33 32 31 31 30 29 31 30 31 30 30 29 28 28 27 26 25 24 24 23 22 21 21 20 20 19 19 19 19 19 18 18 18 18 18 18 17 17 17 17 17 17 17 17 17 16 16

GEFSSGP_850_meantemp_240.txt.gz
Temperature
23 22 22 21 20 21 23 24 24 24 23 23 23 22 22 21 20 19 19 19 19 19 19 19 19 19 19 19 19 19 19 19 19 19 19 19 19 19 18 18 18 18 18 18 18 18 18 18 18
23 23 22 21 21 21 23 24 24 24 24 23 23 22 21 20 20 19 19 19 20 20 19 19 19 19 19 19 19 19 19 19 19 19 19 19 18 18 19 19 19 18 18 18 18 18 18 18 18
23 22 22 21 22 22 24 25 25 25 24 24 23 22 22 20 20 19 20 20 20 20 20 19 19 19 19 19 19 19 19 19 19 19 19 19 19 19 19 19 18 18 18 18 18 18 18 18 18
23 22 22 22 23 24 25 25 25 25 24 23 23 22 21 21 20 20 20 20 20 20 20 19 19 19 19 19 19 19 19 19 19 19 19 19 19 19 19 19 18 18 18 18 18 18 18 18 18
24 23 22 22 24 26 26 26 25 24 24 23 22 21 21 21 21 20 20 20 20 20 20 19 19 19 19 19 19 19 19 19 19 19 18 19 18 18 18 18 18 18 18 18 18 18 18 18 18
24 23 22 23 25 26 26 26 25 24 23 23 22 21 20 20 20 20 20 20 20 20 20 19 19 19 19 19 19 19 19 19 19 19 19 19 18 18 18 18 18 18 18 18 18 18 18 18 18
24 23 23 25 25 26 26 26 25 24 23 23 22 21 20 20 20 20 20 20 20 20 20 19 19 19 19 19 19 19 19 19 19 19 18 18 18 18 18 18 18 18 18 18 18 18 18 18 18
26 23 24 25 25 26 26 26 25 24 24 23 23 21 20 20 20 20 20 20 20 20 19 19 19 19 19 19 19 19 19 19 19 19 18 18 18 18 18 18 18 18 18 18 18 18 18 18 18
27 24 24 25 26 26 26 26 26 25 24 23 23 22 21 21 20 20 20 20 20 19 19 19 19 19 19 19 19 19 19 19 19 19 18 18 18 18 18 18 18 18 18 18 18 18 18 18 18
26 24 26 27 27 27 27 26 26 24 23 23 22 22 21 21 21 21 20 20 19 19 19 19 19 19 19 19 19 19 19 19 19 19 19 18 18 18 18 18 18 18 18 18 18 18 18 18 18
27 26 28 28 28 28 27 26 26 24 22 22 22 21 21 21 21 21 20 20 20 19 19 19 19 19 19 19 19 19 19 19 18 18 18 18 18 18 18 18 18 18 18 18 18 18 18 18 18
28 28 29 29 29 28 27 26 25 24 23 23 23 22 22 21 21 21 20 20 20 19 19 19 19 19 19 19 19 19 19 19 18 18 18 18 18 18 18 18 18 18 18 18 18 18 18 18 18
28 29 29 29 29 28 27 26 25 24 24 23 23 22 22 22 21 21 21 20 20 20 19 19 19 19 19 19 19 19 19 19 18 18 18 18 18 18 18 18 18 18 18 18 18 18 18 18 18
29 29 28 28 28 28 27 26 25 24 24 23 23 22 22 22 21 21 21 20 20 20 20 19 19 19 19 19 19 19 19 19 18 18 18 18 18 18 18 18 18 18 18 18 18 18 18 18 18
29 28 27 28 28 27 26 25 25 24 24 23 23 22 22 22 22 21 21 21 20 20 20 20 20 19 19 19 19 19 19 19 18 18 18 18 18 18 18 18 18 18 18 18 18 18 18 18 18
27 26 26 27 27 27 25 24 25 25 24 23 23 22 22 22 22 22 21 21 21 20 20 20 20 19 19 19 19 19 19 19 18 18 18 18 18 18 18 18 18 18 18 18 18 18 18 18 18
25 25 25 27 28 27 25 24 25 25 24 24 23 23 22 22 22 22 21 21 21 21 20 20 20 20 19 19 19 19 19 19 19 18 18 18 18 18 18 18 18 18 18 18 18 18 18 18 18
25 25 26 26 27 27 25 24 25 25 25 24 24 23 23 22 22 22 21 21 21 21 21 20 20 20 19 19 19 19 19 19 19 19 18 18 18 18 18 18 18 18 18 18 18 18 18 18 18
27 26 26 27 28 27 25 25 25 25 25 24 24 23 23 22 22 22 22 21 21 21 21 20 20 20 20 19 19 19 19 19 19 19 19 18 18 18 18 18 18 18 18 18 18 18 18 17 17
28 27 27 27 28 27 25 25 25 25 24 24 24 23 23 23 22 22 22 21 21 21 21 20 20 20 20 19 19 19 19 19 19 19 19 18 18 18 18 18 18 18 18 18 18 18 18 18 17
28 27 27 27 27 26 25 24 24 24 25 25 24 24 24 23 23 22 22 22 21 21 21 21 20 20 20 20 19 19 19 19 19 18 18 18 18 18 18 18 18 18 18 18 18 18 18 18 18
28 29 29 28 26 24 24 22 23 23 23 24 24 24 23 23 23 23 22 22 22 21 21 21 20 20 20 20 19 19 19 19 19 19 18 18 18 18 18 18 18 18 18 18 18 18 18 17 17
28 29 29 28 25 23 23 22 22 22 23 23 24 24 24 23 23 23 23 22 22 21 21 21 20 20 20 20 19 19 19 19 19 19 18 18 18 18 18 18 18 18 18 18 18 18 17 17 17
30 28 26 24 22 23 23 22 22 22 23 23 24 24 24 23 23 23 23 22 22 21 21 21 21 20 20 20 19 19 19 19 19 19 18 18 18 18 18 18 18 18 18 18 18 18 17 17 17
28 25 23 24 22 22 23 23 22 23 24 24 24 24 24 23 23 23 22 22 22 22 21 21 21 20 20 20 19 19 19 19 19 19 18 18 18 18 18 18 18 18 18 18 18 17 17 17 17
27 25 23 24 23 22 23 22 23 24 24 25 25 25 24 23 23 23 23 22 22 22 21 21 21 21 20 20 20 19 19 19 19 19 19 18 18 18 18 18 18 18 18 17 17 17 17 17 17
27 25 23 22 22 22 22 22 23 24 24 24 24 24 24 23 23 23 23 23 22 22 21 21 21 21 20 20 20 19 19 19 19 19 18 18 18 18 18 18 18 18 18 17 17 17 17 17 17
27 26 22 22 22 22 22 22 22 23 23 23 23 23 24 24 23 23 23 23 22 22 22 21 21 21 20 20 20 19 19 19 19 19 18 18 18 18 18 18 18 18 17 17 17 17 17 17 17
27 26 23 20 21 21 22 22 23 23 23 23 23 23 23 24 23 23 23 22 22 22 22 21 21 21 20 20 20 19 19 19 19 19 18 18 18 18 18 17 17 17 17 17 17 17 17 17 17
27 26 23 23 22 21 21 22 24 23 22 22 23 23 23 23 23 23 23 22 22 21 21 21 21 20 20 20 20 19 19 19 19 18 18 18 18 18 17 17 17 17 17 17 17 17 17 17 16

GEFSSGP_850_meantemp_246.txt.gz
Temperature
21 21 20 20 19 19 20 21 22 21 21 21 21 21 20 19 19 19 19 19 19 19 19 19 19 18 19 18 18 19 18 18 18 18 18 18 18 18 18 18 18 18 18 18 18 18 18 18 18
22 21 21 20 19 19 21 22 22 22 21 21 21 20 19 19 19 19 19 19 19 19 19 19 19 19 18 18 18 19 19 18 18 18 18 18 18 18 18 18 18 18 18 18 18 18 18 18 18
21 21 21 19 20 20 21 22 22 22 22 22 21 20 20 19 19 19 19 19 19 19 19 19 19 18 18 18 18 18 18 18 18 18 18 18 18 18 18 18 18 18 18 18 18 18 18 18 18
22 21 21 20 21 22 22 22 22 22 22 22 21 20 19 19 19 19 19 19 19 19 19 19 19 19 18 18 18 18 18 18 18 18 18 18 18 18 18 18 18 18 18 18 18 18 18 18 18
22 21 20 20 22 23 22 23 23 22 22 21 20 19 19 19 19 19 19 19 19 19 19 19 19 19 19 18 18 18 18 18 18 18 18 18 18 18 18 18 18 18 18 18 18 18 18 18 18
22 20 20 21 22 23 23 23 22 22 21 21 20 19 19 19 19 19 19 19 19 19 19 19 18 19 19 18 18 18 18 18 18 18 18 18 18 18 18 18 18 18 18 18 18 18 18 18 18
22 20 21 22 22 23 23 23 22 21 21 21 20 19 19 19 19 19 19 19 19 19 19 19 18 18 18 18 18 18 18 18 18 18 18 18 18 18 18 18 18 18 18 18 18 18 18 18 18
23 20 22 22 22 23 23 23 23 22 22 21 21 19 19 19 19 19 19 19 19 19 19 19 19 18 18 18 18 18 18 18 18 18 18 18 18 18 18 18 18 18 18 18 18 17 18 18 17
23 21 21 22 23 23 23 23 23 22 22 21 21 21 20 19 19 19 19 19 19 19 19 19 19 19 18 18 18 18 18 18 18 18 18 18 18 18 18 18 18 18 18 18 18 18 17 18 17
23 21 22 23 23 23 23 23 23 22 21 21 20 20 20 19 19 19 19 19 19 19 19 19 19 19 19 18 18 18 18 18 18 18 18 18 18 18 18 18 18 18 18 18 18 18 17 18 17
22 22 23 24 25 24 24 23 23 22 21 21 20 20 20 19 19 19 19 19 19 19 19 19 19 18 18 18 18 18 18 18 18 18 18 18 18 18 18 18 18 18 18 18 18 17 17 17 17
23 24 25 25 25 24 24 23 22 22 22 22 21 21 20 20 20 20 19 19 19 19 19 19 19 19 18 18 18 18 18 18 18 18 18 18 18 18 18 18 17 17 17 18 17 17 17 17 17
25 25 25 25 25 25 24 23 23 22 22 22 21 21 20 20 20 20 20 19 19 19 19 19 19 19 18 18 18 18 18 18 18 18 18 18 18 18 18 18 18 17 17 17 17 17 17 17 17
25 25 24 25 25 24 23 23 22 21 22 21 21 20 20 20 20 20 19 19 19 19 19 19 19 19 18 18 18 18 18 18 18 18 18 18 18 18 18 18 18 17 17 17 17 17 17 17 17
26 24 24 24 25 24 24 23 22 22 21 21 21 20 20 20 20 20 20 20 20 19 19 19 19 19 18 18 18 18 18 18 18 18 18 18 18 18 18 18 17 17 17 17 17 17 17 17 17
24 24 23 25 24 24 24 22 22 22 21 21 20 20 20 20 20 20 20 20 20 20 19 19 19 19 19 19 19 18 18 18 18 18 18 18 17 18 18 18 18 17 17 17 17 17 17 17 17
23 23 24 24 25 24 23 22 22 22 21 21 21 20 20 20 20 20 20 20 20 20 20 19 19 19 19 19 19 18 18 18 18 18 18 18 18 18 18 18 18 17 17 17 17 17 17 17 17
24 24 24 24 24 24 23 22 22 22 21 21 21 21 21 21 21 21 21 20 20 20 20 19 19 19 19 19 19 18 18 18 18 18 18 18 18 18 18 18 18 18 17 17 17 17 17 17 17
25 24 24 24 24 23 23 22 22 22 21 21 21 21 21 21 21 21 21 20 20 20 20 20 19 19 19 19 19 19 18 18 18 18 18 18 18 18 18 18 18 18 18 18 17 17 17 17 17
25 24 24 24 24 24 22 22 22 22 21 21 21 21 22 22 21 21 21 20 20 20 20 20 20 19 19 19 19 19 19 18 18 18 18 18 18 18 18 18 18 18 18 18 17 17 17 17 17
25 24 24 24 24 23 23 22 22 22 22 22 22 22 22 22 22 21 21 21 20 20 20 20 20 20 19 19 19 19 19 18 18 18 18 18 18 18 18 18 17 17 17 17 17 17 17 17 17
24 25 25 24 23 22 23 22 22 21 21 21 21 21 21 22 22 22 21 21 21 21 20 20 20 20 19 19 19 19 19 19 19 18 18 18 18 18 18 17 17 17 17 17 17 17 17 17 17
25 25 24 24 22 21 21 21 21 20 20 21 21 22 22 22 22 22 22 21 21 21 21 20 20 20 19 19 19 19 19 19 18 18 18 18 18 18 18 18 17 17 17 17 17 17 17 17 17
25 23 22 20 20 21 22 21 21 20 20 21 22 22 22 22 22 22 22 22 21 21 21 20 20 20 20 19 19 19 19 19 18 18 18 18 18 18 17 17 17 17 17 17 17 17 17 17 17
24 22 21 22 20 21 21 21 21 21 21 22 22 22 22 22 22 22 22 22 21 21 21 20 20 20 20 19 19 19 19 19 19 18 18 18 18 18 17 17 17 17 17 17 17 17 17 17 17
23 22 22 22 21 20 21 21 21 22 22 23 23 23 23 22 22 22 22 22 22 21 21 21 20 20 20 20 19 19 19 19 18 18 18 18 18 18 17 17 17 17 17 17 17 17 17 17 16
23 21 21 20 20 20 20 20 21 22 21 21 22 22 22 22 23 23 23 22 22 21 21 21 21 20 20 20 19 19 19 19 18 18 18 18 18 17 17 17 17 17 17 17 17 17 17 17 16
23 20 18 19 20 21 22 21 21 22 21 21 20 21 22 22 22 22 22 22 22 22 21 21 20 20 20 20 20 19 19 19 18 18 18 18 18 17 17 17 17 17 17 17 17 16 16 17 16
22 21 18 17 19 20 21 21 21 21 21 20 20 21 21 22 22 22 22 22 22 21 21 21 20 20 20 20 20 19 19 19 19 18 18 18 18 17 17 17 17 17 17 16 16 16 16 16 16
23 21 19 21 20 18 19 21 22 20 20 20 20 21 21 22 22 22 22 22 22 22 21 21 20 20 20 20 20 19 19 19 19 18 18 18 18 17 17 17 17 16 16 16 16 16 16 16 16

GEFSSGP_850_meantemp_252.txt.gz
Temperature
21 20 20 21 26 28 27 26 27 26 26 24 24 25 24 24 24 22 20 19 19 19 18 18 18 18 18 18 18 18 18 18 18 18 18 18 18 18 18 18 18 18 18 18 18 18 18 18 18
20 20 21 25 29 28 26 27 26 26 25 24 24 24 24 23 21 20 19 19 19 19 19 18 19 18 18 18 18 18 18 18 18 18 18 18 18 18 18 18 18 18 18 18 18 18 18 18 18
20 21 24 29 29 28 27 27 26 26 25 25 24 24 23 22 21 20 19 19 19 19 18 18 19 19 18 18 18 18 18 18 18 18 18 18 18 18 18 18 18 18 18 18 18 18 18 18 18
21 23 27 29 28 28 27 27 27 26 25 25 24 24 22 20 20 20 19 19 19 19 19 18 19 19 18 18 18 18 18 18 18 18 18 18 18 18 18 18 18 18 18 18 18 18 18 18 18
23 27 30 29 28 28 28 27 27 27 26 25 25 24 22 20 20 20 19 19 19 19 19 18 19 19 18 18 18 18 18 18 18 18 18 18 18 18 18 18 18 18 18 18 18 18 18 18 18
27 30 30 29 28 28 28 27 27 26 25 25 25 24 21 20 20 20 19 19 19 19 19 18 19 19 18 18 18 18 18 18 18 18 18 18 18 18 18 18 18 18 18 18 18 18 18 18 18
29 31 30 29 29 28 28 27 27 27 26 25 25 24 22 20 19 19 19 19 19 19 19 19 18 18 18 19 18 18 18 18 18 18 18 18 18 18 18 18 18 18 18 18 18 18 17 17 18
28 31 31 30 29 28 28 27 26 26 26 24 24 24 22 20 19 19 19 19 18 18 19 18 19 18 18 18 19 18 18 18 18 18 18 18 18 18 18 18 18 18 18 18 18 18 18 18 18
28 31 31 30 29 29 28 27 26 26 25 24 24 23 22 20 20 20 20 19 19 18 18 18 18 18 18 18 18 18 18 18 18 18 18 18 17 17 17 18 18 18 18 18 18 17 17 18 18
30 31 31 31 31 30 28 28 27 26 26 24 23 22 21 20 20 20 20 20 19 19 18 18 18 18 18 18 18 18 18 18 18 18 17 18 18 17 18 18 18 18 18 18 18 18 18 17 17
31 31 31 30 30 29 28 28 27 27 27 25 24 22 21 21 21 21 21 20 20 19 19 18 18 18 18 18 18 18 18 18 18 17 17 18 18 18 17 17 17 17 17 17 17 17 17 17 17
31 31 30 30 29 29 29 28 28 27 26 25 24 22 21 21 21 21 21 20 20 19 19 18 18 18 18 18 18 18 18 18 18 18 18 17 18 18 17 17 17 17 17 17 17 17 17 17 17
31 31 30 30 29 29 28 28 28 27 25 24 23 22 22 22 21 21 20 20 19 19 19 18 18 18 18 18 18 18 18 18 18 17 17 17 18 17 17 17 17 17 17 17 17 17 17 17 17
31 30 30 30 29 29 29 28 28 26 25 24 23 23 22 22 22 21 20 20 19 19 19 18 18 18 18 18 18 18 18 18 18 17 17 17 17 17 17 17 17 17 17 17 17 17 17 17 17
30 31 30 30 30 29 29 29 28 26 25 24 24 23 23 22 22 21 20 20 20 19 19 18 18 18 18 18 18 18 18 18 18 17 17 18 17 17 17 17 17 17 17 17 17 17 17 17 17
31 31 31 30 30 29 30 29 28 26 26 25 24 24 23 22 22 21 21 20 20 19 19 19 19 19 18 18 18 18 18 18 18 18 18 18 18 18 18 17 18 17 17 17 17 17 17 17 17
32 32 31 30 30 30 30 30 29 26 26 26 25 24 23 22 22 21 21 20 20 19 19 19 19 19 18 18 18 18 18 18 18 18 18 18 18 18 18 18 18 17 17 17 18 17 17 17 17
31 32 31 31 31 31 30 30 29 27 27 26 25 25 24 23 22 22 21 20 20 19 19 19 19 19 19 18 18 18 18 18 18 18 18 18 18 18 18 17 17 18 17 17 17 17 17 17 17
32 32 31 31 31 31 30 30 30 28 27 27 26 25 24 24 23 22 21 20 20 20 19 19 19 19 19 19 19 18 18 18 18 18 18 18 18 18 18 18 18 17 18 18 17 17 17 17 17
32 31 32 31 31 31 31 31 31 29 28 27 27 26 25 24 23 22 21 21 20 20 20 19 19 19 19 19 19 19 18 18 18 18 18 18 18 18 18 18 17 18 17 17 17 17 17 17 17
31 32 32 31 31 31 31 31 30 30 28 27 27 26 26 25 24 23 22 21 21 20 20 20 19 19 19 19 19 18 18 18 18 18 18 18 18 18 18 17 18 17 17 17 17 17 17 17 17
31 32 32 31 31 31 31 31 31 30 29 28 27 27 26 25 24 23 22 21 21 20 20 20 20 19 19 19 19 19 19 19 18 18 18 18 18 18 18 18 17 18 17 17 17 17 17 17 17
32 32 32 31 31 31 31 31 32 30 29 29 29 27 27 26 25 24 23 22 21 21 20 20 20 20 19 19 19 19 19 19 18 18 18 18 18 18 17 18 18 18 17 17 17 17 17 17 17
31 31 31 31 32 30 31 31 31 31 30 30 29 28 27 26 25 24 23 22 22 21 20 20 20 20 19 19 19 19 19 19 18 18 18 18 18 18 18 17 18 17 17 17 17 17 17 17 17
31 31 30 30 30 31 31 31 31 31 31 31 30 28 27 26 25 24 23 22 22 21 21 20 20 20 20 19 19 19 19 19 18 18 18 18 18 18 17 17 18 17 17 17 17 17 17 17 17
31 32 30 30 30 31 30 31 31 31 30 29 29 28 27 26 26 25 24 23 22 22 21 20 20 20 20 19 19 19 19 19 18 18 18 18 18 18 18 17 17 17 17 17 17 17 17 17 17
31 31 33 32 31 31 31 31 31 30 30 29 28 27 27 26 25 25 24 23 22 22 21 21 20 20 20 20 20 19 19 19 18 18 18 18 18 18 17 17 17 17 17 17 17 17 17 17 16
32 32 31 31 29 30 30 31 31 30 30 29 29 28 26 26 25 24 24 23 22 22 21 20 20 20 20 19 19 19 19 19 19 18 18 18 18 18 17 17 17 17 17 17 17 16 16 16 16
30 30 31 31 31 30 30 31 32 30 30 29 29 27 26 26 25 24 23 23 22 22 21 20 20 20 19 19 19 19 19 19 19 18 18 18 18 17 17 17 17 17 17 16 17 16 16 16 16
31 31 31 30 29 30 31 31 30 30 30 29 28 26 25 25 25 24 23 23 22 22 21 20 20 20 19 19 19 19 19 18 18 18 18 18 18 17 17 17 17 17 16 16 16 16 16 16 15